Weather History for El Centro, CA

Change the Weather History Date:

Sunday, June 9, 2013

  Actual Average Record
Temperature  
Mean Temperature 83 °F -  
Max Temperature 102 °F 96 °F 109 °F (2014)
Min Temperature 66 °F 69 °F 61 °F (1998)
Cooling Degree Days 18    
Growing Degree Days 33 (Base 50)    
Moisture  
Dew Point 57 °F    
Average Humidity 43    
Maximum Humidity 73    
Minimum Humidity 17    
Precipitation  
Precipitation 0.00 in - - ()
Sea Level Pressure  
Sea Level Pressure 29.77 in    
Wind  
Wind Speed 6 mph (East)    
Max Wind Speed 10 mph    
Max Gust Speed -    
Visibility 10 miles    
Events      
Averages and records for this station are not official NWS values.
T = Trace of Precipitation, MM = Missing Value Source: NWS Daily Summary

Daily Weather History Graph

Daily Weather History Graph

Search for Another Location

Airport:

Trip Planner

Search our weather history database for the weather conditions in past years. The results will help you decide how hot, cold, wet, or windy it might be!

Date:

Astronomy

Jun. 09, 2013 Rise Set
Actual Time 5:33 AM PDT 7:50 PM PDT
Civil Twilight 5:05 AM PDT 8:18 PM PDT
Nautical Twilight 4:30 AM PDT 8:53 PM PDT
Astronomical Twilight 3:52 AM PDT 9:31 PM PDT
Moon 6:31 AM PDT (6/9) 8:43 PM PDT (6/9)
Length of Visible Light 15h 13m
Length of Day
14h 16m
New Moon, 1% of the Moon is Illuminated
Jun 9
New Moon
Jun 16
First Quarter
Jun 23
Full
Jun 29
Last Quarter
Jul 8
New

Hourly Weather History & Observations

Time (PDT) Temp. Heat Index Dew Point Humidity Pressure Visibility Wind Dir Wind Speed Gust Speed Precip Events Conditions
12:56 AM 73.9 °F - 62.1 °F 66% 29.75 in 10.0 mi East 9.2 mph - N/A   Clear
1:56 AM 73.0 °F - 61.0 °F 66% 29.75 in 9.0 mi ESE 9.2 mph - N/A   Clear
2:56 AM 70.0 °F - 61.0 °F 73% 29.75 in 5.0 mi SE 3.5 mph - N/A   Haze
3:56 AM 70.0 °F - 57.9 °F 65% 29.76 in 6.0 mi NNW 3.5 mph - N/A   Haze
4:56 AM 68.0 °F - 57.0 °F 68% 29.77 in 7.0 mi North 4.6 mph - N/A   Clear
5:56 AM 66.0 °F - 57.0 °F 73% 29.79 in 10.0 mi NE 6.9 mph - N/A   Clear
6:56 AM 73.0 °F - 59.0 °F 61% 29.81 in 10.0 mi NE 4.6 mph - N/A   Clear
7:56 AM 77.0 °F - 63.0 °F 62% 29.83 in 10.0 mi East 4.6 mph - N/A   Clear
8:56 AM 80.1 °F 81.9 °F 64.9 °F 60% 29.84 in 10.0 mi East 4.6 mph - N/A   Clear
9:56 AM 84.0 °F 85.8 °F 64.9 °F 53% 29.83 in 10.0 mi East 4.6 mph - N/A   Clear
10:56 AM 88.0 °F 89.6 °F 64.9 °F 46% 29.83 in 10.0 mi SW 3.5 mph - N/A   Clear
11:56 AM 93.0 °F 94.6 °F 64.0 °F 38% 29.83 in 10.0 mi Variable 4.6 mph - N/A   Clear
12:56 PM 93.0 °F 94.6 °F 64.0 °F 38% 29.81 in 10.0 mi Variable 4.6 mph - N/A   Clear
1:56 PM 95.0 °F 95.6 °F 62.1 °F 33% 29.80 in 10.0 mi East 4.6 mph - N/A   Clear
2:56 PM 99.0 °F 99.5 °F 60.1 °F 28% 29.77 in 10.0 mi Calm Calm - N/A   Clear
3:56 PM 100.0 °F 100.7 °F 60.1 °F 27% 29.75 in 10.0 mi ESE 9.2 mph - N/A   Clear
4:56 PM 100.9 °F 99.1 °F 54.0 °F 21% 29.73 in 10.0 mi East 6.9 mph - N/A   Clear
5:56 PM 100.0 °F - 50.0 °F 18% 29.71 in 10.0 mi East 9.2 mph - N/A   Clear
6:56 PM 96.1 °F - 45.0 °F 17% 29.72 in 10.0 mi ESE 10.4 mph - N/A   Clear
7:56 PM 88.0 °F - 48.9 °F 26% 29.72 in 10.0 mi ESE 8.1 mph - N/A   Clear
8:56 PM 90.0 °F - 44.1 °F 20% 29.75 in 10.0 mi SW 3.5 mph - N/A   Clear
9:56 PM 87.1 °F - 45.0 °F 23% 29.76 in 10.0 mi SE 5.8 mph - N/A   Clear
10:56 PM 81.0 °F - 44.1 °F 27% 29.77 in 10.0 mi Calm Calm - N/A   Clear
11:56 PM 79.0 °F - 46.9 °F 32% 29.76 in 10.0 mi NE 4.6 mph - N/A   Clear